Regional Weather Roundup
Issued by NWS Goodland, KS

Home | Current Version | Previous Version | Graphics & Text | Print | Product List | Glossary On
Versions: 1 2 3 4 5 6 7 8 9 10 11 12 13 14 15 16 17 18 19 20 21 22 23 24 25 26 27 28 29 30 31 32 33 34 35 36 37 38 39 40 41 42 43 44 45 46 47 48 49 50
000
ASUS43 KGLD 131008
RWRGLD

GOODLAND FORECAST AREA HOURLY WEATHER ROUNDUP
NATIONAL WEATHER SERVICE GOODLAND KS
400 AM MDT SUN JUL 13 2014

...OFFICIAL OBSERVATIONS...

CITY           SKY/WX    TMP DP  RH WIND       PRES   REMARKS
GOODLAND KS    CLOUDY    68  61  78 S3        30.24F
HILL CITY KS   CLOUDY    69  66  90 NW8       30.16R
IMPERIAL NEB   PTCLDY    63  60  90 CALM      30.21R
MCCOOK NEB     MOCLDY    65  64  97 SW5       30.18R
AKRON CO       MOCLDY    61  59  93 W6        30.28S
BURLINGTON CO  CLOUDY    67  61  81 SW7       30.25F
LIMON CO       CLOUDY    62  60  93 CALM      30.33F
$$

...UNOFFICIAL OBSERVATIONS...

CITY           SKY/WX    TMP DP  RH WIND       PRES   REMARKS
COLBY KS       PTCLDY    68  68 100 SW5       30.22F
GOVE KS          N/A     72  32  23 CALM        N/A
LENORA KS        N/A     67  32  27 MISG        N/A
NORTON KS      PTCLDY    64  63  94 W6        30.16R
OBERLIN KS     FAIR      66  64  94 CALM      30.19R
ST FRANCIS KS  CLOUDY    68  63  83 S5        30.22R
TRIBUNE KS     CLOUDY    64  55  72 N14       30.23F
KIT CARSON CO    N/A     64  61  89 N8G15       N/A
WRAY CO        FAIR     N/A N/A N/A W5        30.23S
YUMA CO          N/A     63  61  92 CALM        N/A
$$


USA.gov is the U.S. government's official web portal to all federal, state and local government web resources and services.